This is the latest recevied weather packets stored in our database for station/object IN3XSV. If no packets are shown the sender has not sent any weather packets the latest 1 day(s).
| Time | Temp. | Humidity | Pressure | Rain* | Wind** | Luminosity | Snow |
|---|---|---|---|---|---|---|---|
| 1778065119 | 15° C | 73% | 1003.2 hPa | 0 mm | - | - | - |
| 1778064819 | 14.44° C | 73% | 1003.3 hPa | 0 mm | - | - | - |
| 1778064519 | 14.44° C | 72% | 1003.6 hPa | 0 mm | - | - | - |
| 1778064219 | 15° C | 72% | 1003.6 hPa | 0 mm | - | - | - |
| 1778063919 | 14.44° C | 71% | 1003.5 hPa | 0 mm | - | - | - |
| 1778063619 | 14.44° C | 72% | 1003.6 hPa | 0 mm | - | - | - |
| 1778063319 | 14.44° C | 73% | 1003.6 hPa | 0 mm | - | - | - |
| 1778063019 | 15° C | 73% | 1003.6 hPa | 0 mm | - | - | - |
| 1778062719 | 15° C | 73% | 1003.6 hPa | 0 mm | - | - | - |
| 1778062419 | 15° C | 73% | 1003.6 hPa | 0 mm | - | - | - |
| 1778062119 | 15° C | 74% | 1003.7 hPa | 0 mm | - | - | - |
| 1778061819 | 14.44° C | 73% | 1003.6 hPa | 0 mm | - | - | - |
| 1778061519 | 14.44° C | 73% | 1003.7 hPa | 0 mm | - | - | - |
| 1778061219 | 13.89° C | 73% | 1003.7 hPa | 0 mm | - | - | - |
| 1778060619 | 13.89° C | 76% | 1003.7 hPa | 0 mm | - | - | - |
| 1778060319 | 14.44° C | 77% | 1003.9 hPa | 0 mm | - | - | - |
| 1778059719 | 14.44° C | 77% | 1003.7 hPa | 0 mm | - | - | - |
| 1778059119 | 14.44° C | 78% | 1003.7 hPa | 0 mm | - | - | - |
| 1778058819 | 14.44° C | 79% | 1003.8 hPa | 0 mm | - | - | - |
| 1778058519 | 13.89° C | 79% | 1003.8 hPa | 0 mm | - | - | - |
| 1778057919 | 13.33° C | 79% | 1003.8 hPa | 0 mm | - | - | - |
| 1778057619 | 12.78° C | 79% | 1003.8 hPa | 0 mm | - | - | - |
| 1778057319 | 12.22° C | 79% | 1003.8 hPa | 0 mm | - | - | - |
| 1778057019 | 12.22° C | 79% | 1003.8 hPa | 0 mm | - | - | - |
| 1778056719 | 12.22° C | 79% | 1004 hPa | 0 mm | - | - | - |
* Rain latest hour (hover to see other rain measurements)
** Current wind speed in m/s (hover to see current wind gust speed)